When you browse on this site, cookies collect data to enhance your experience and personalize the content and advertising you see.
Visit our Privacy Policy to learn more. By continuing to use the site, you agree to this use of cookies and data.
  • en France
  • Liste des pays
  • À 7 jours
  • Température de l'eau
  • Carte satellitaire
  • Carte météo
  • Widgets météo
  • user-avatar
    Se connecter

    Météo par heure à Yopal

    Ce jour, 18 Novembre, Dimanche

    Heure Température Précipitation Vent Pression Humidité
    00:00 +26°C° 0.2 mm 1 m/s 729 mmHg 91%
    01:00 +25°C° 0.2 mm 1 m/s 729 mmHg 90%
    02:00 +25°C° 0.1 mm 1 m/s 729 mmHg 90%
    03:00 +25°C° 0.1 mm 1 m/s 729 mmHg 90%
    04:00 +25°C° 0.1 mm 1 m/s 728 mmHg 89%
    05:00 +25°C° 0.1 mm 1 m/s 729 mmHg 87%
    06:00 +26°C° 0.1 mm 1 m/s 729 mmHg 86%
    07:00 +24°C° 0.1 mm 0 m/s 730 mmHg 84%
    08:00 +27°C° 0.2 mm 1 m/s 730 mmHg 81%
    09:00 +28°C° 0.2 mm 1 m/s 730 mmHg 77%
    10:00 +29°C° 0.2 mm 2 m/s 731 mmHg 74%
    11:00 +30°C° 0.4 mm 2 m/s 730 mmHg 72%
    12:00 +31°C° 0.4 mm 2 m/s 730 mmHg 71%
    13:00 +31°C° 0.4 mm 2 m/s 729 mmHg 69%
    14:00 +31°C° 1.2 mm 2 m/s 728 mmHg 74%
    15:00 +30°C° 1.2 mm 2 m/s 728 mmHg 79%
    16:00 +29°C° 1.2 mm 2 m/s 727 mmHg 84%
    17:00 +28°C° 0.5 mm 1 m/s 728 mmHg 87%
    18:00 +27°C° 0.5 mm 1 m/s 728 mmHg 91%
    19:00 +26°C° 0.5 mm 1 m/s 728 mmHg 94%
    20:00 +26°C° 0.3 mm 1 m/s 729 mmHg 94%
    21:00 +26°C° 0.3 mm 1 m/s 729 mmHg 94%
    22:00 +26°C° 0.3 mm 1 m/s 730 mmHg 94%
    23:00 +26°C° 0.3 mm 1 m/s 730 mmHg 93%

    Demain, 19 Novembre, Lundi

    Heure Température Précipitation Vent Pression Humidité
    00:00 +25°C° 0.3 mm 1 m/s 729 mmHg 93%
    01:00 +25°C° 0.3 mm 1 m/s 729 mmHg 93%
    02:00 +25°C° 0.1 mm 1 m/s 729 mmHg 92%
    03:00 +25°C° 0.1 mm 1 m/s 729 mmHg 91%
    04:00 +24°C° 0.1 mm 1 m/s 729 mmHg 90%
    05:00 +25°C° 0 mm 1 m/s 729 mmHg 87%
    06:00 +26°C° 0 mm 1 m/s 730 mmHg 84%
    07:00 +26°C° 0 mm 1 m/s 730 mmHg 81%
    08:00 +28°C° 0 mm 1 m/s 730 mmHg 74%
    09:00 +30°C° 0 mm 2 m/s 731 mmHg 66%
    10:00 +33°C° 0 mm 3 m/s 731 mmHg 58%
    11:00 +33°C° 0 mm 3 m/s 730 mmHg 58%
    12:00 +34°C° 0 mm 3 m/s 729 mmHg 58%
    13:00 +34°C° 0 mm 3 m/s 728 mmHg 57%
    14:00 +34°C° 0 mm 2 m/s 728 mmHg 61%
    15:00 +32°C° 0 mm 2 m/s 727 mmHg 65%
    16:00 +32°C° 0 mm 2 m/s 726 mmHg 69%
    17:00 +30°C° 0 mm 1 m/s 727 mmHg 74%
    18:00 +29°C° 0 mm 1 m/s 728 mmHg 79%
    19:00 +28°C° 0 mm 1 m/s 728 mmHg 85%
    20:00 +27°C° 0 mm 1 m/s 729 mmHg 85%
    21:00 +27°C° 0 mm 1 m/s 729 mmHg 85%
    22:00 +27°C° 0 mm 1 m/s 730 mmHg 85%
    23:00 +26°C° 0 mm 1 m/s 730 mmHg 85%

    Après-demain, 20 Novembre, Mardi

    Heure Température Précipitation Vent Pression Humidité
    00:00 +26°C° 0 mm 1 m/s 729 mmHg 86%
    01:00 +25°C° 0 mm 1 m/s 729 mmHg 86%
    02:00 +25°C° 0 mm 1 m/s 729 mmHg 85%
    03:00 +25°C° 0 mm 1 m/s 728 mmHg 85%
    04:00 +25°C° 0 mm 1 m/s 728 mmHg 84%
    05:00 +26°C° 0 mm 1 m/s 729 mmHg 81%
    06:00 +26°C° 0 mm 1 m/s 729 mmHg 78%
    07:00 +27°C° 0 mm 1 m/s 730 mmHg 75%
    08:00 +29°C° 0.1 mm 2 m/s 730 mmHg 70%
    09:00 +30°C° 0.1 mm 2 m/s 731 mmHg 64%
    10:00 +33°C° 0.1 mm 3 m/s 731 mmHg 59%
    11:00 +33°C° 0.1 mm 3 m/s 730 mmHg 60%
    12:00 +34°C° 0.1 mm 3 m/s 729 mmHg 60%
    13:00 +34°C° 0.1 mm 3 m/s 728 mmHg 60%
    14:00 +33°C° 0.1 mm 3 m/s 728 mmHg 65%
    15:00 +31°C° 0.1 mm 2 m/s 727 mmHg 69%
    16:00 +31°C° 0.1 mm 2 m/s 727 mmHg 74%
    17:00 +30°C° 0.2 mm 1 m/s 728 mmHg 79%
    18:00 +28°C° 0.2 mm 1 m/s 728 mmHg 84%
    19:00 +27°C° 0.2 mm 1 m/s 729 mmHg 89%
    20:00 +27°C° 0.5 mm 1 m/s 729 mmHg 89%
    21:00 +27°C° 0.5 mm 1 m/s 730 mmHg 89%
    22:00 +26°C° 0.5 mm 1 m/s 730 mmHg 89%
    23:00 +26°C° 0.1 mm 1 m/s 730 mmHg 89%

    21 Novembre, Mercredi

    Heure Température Précipitation Vent Pression Humidité
    00:00 +26°C° 0.1 mm 1 m/s 729 mmHg 89%
    01:00 +26°C° 0.1 mm 1 m/s 729 mmHg 89%
    02:00 +25°C° 0.1 mm 1 m/s 729 mmHg 88%
    03:00 +25°C° 0.1 mm 1 m/s 729 mmHg 87%
    04:00 +25°C° 0.1 mm 1 m/s 729 mmHg 86%
    05:00 +26°C° 0.1 mm 1 m/s 729 mmHg 84%
    06:00 +26°C° 0.1 mm 1 m/s 730 mmHg 81%
    07:00 +27°C° 0.1 mm 1 m/s 731 mmHg 79%
    08:00 +28°C° 0.1 mm 1 m/s 731 mmHg 74%
    09:00 +30°C° 0.1 mm 2 m/s 731 mmHg 68%
    10:00 +31°C° 0.1 mm 3 m/s 731 mmHg 63%
    11:00 +33°C° 0.1 mm 3 m/s 730 mmHg 63%
    12:00 +33°C° 0.1 mm 3 m/s 729 mmHg 62%
    13:00 +33°C° 0.1 mm 3 m/s 729 mmHg 61%
    14:00 +32°C° 0.2 mm 2 m/s 728 mmHg 65%
    15:00 +31°C° 0.2 mm 2 m/s 728 mmHg 68%
    16:00 +31°C° 0.2 mm 1 m/s 727 mmHg 71%
    17:00 +30°C° 0.3 mm 1 m/s 728 mmHg 76%
    18:00 +29°C° 0.3 mm 1 m/s 728 mmHg 80%
    19:00 +27°C° 0.3 mm 1 m/s 729 mmHg 84%
    20:00 +27°C° 0.5 mm 1 m/s 729 mmHg 84%
    21:00 +27°C° 0.5 mm 1 m/s 729 mmHg 84%
    22:00 +27°C° 0.5 mm 1 m/s 730 mmHg 84%
    23:00 +26°C° 0.3 mm 1 m/s 729 mmHg 85%

    22 Novembre, Jeudi

    Heure Température Précipitation Vent Pression Humidité
    00:00 +26°C° 0.3 mm 1 m/s 729 mmHg 85%
    01:00 +26°C° 0.3 mm 1 m/s 728 mmHg 85%
    02:00 +25°C° 0.1 mm 1 m/s 728 mmHg 85%
    03:00 +25°C° 0.1 mm 1 m/s 728 mmHg 85%
    04:00 +25°C° 0.1 mm 1 m/s 728 mmHg 84%
    05:00 +26°C° 0 mm 1 m/s 729 mmHg 81%
    06:00 +26°C° 0 mm 1 m/s 729 mmHg 78%
    07:00 +27°C° 0 mm 1 m/s 730 mmHg 75%
    08:00 +29°C° 0 mm 1 m/s 730 mmHg 69%
    09:00 +30°C° 0 mm 2 m/s 730 mmHg 63%
    10:00 +32°C° 0 mm 2 m/s 730 mmHg 57%
    11:00 +32°C° 0.1 mm 2 m/s 729 mmHg 57%
    12:00 +34°C° 0.1 mm 3 m/s 728 mmHg 58%
    13:00 +34°C° 0.1 mm 3 m/s 728 mmHg 58%
    14:00 +32°C° 0.5 mm 2 m/s 727 mmHg 63%
    15:00 +32°C° 0.5 mm 2 m/s 727 mmHg 68%
    16:00 +31°C° 0.5 mm 2 m/s 726 mmHg 73%
    17:00 +30°C° 1 mm 1 m/s 727 mmHg 78%
    18:00 +29°C° 1 mm 1 m/s 727 mmHg 83%
    19:00 +27°C° 1 mm 1 m/s 728 mmHg 88%
    20:00 +27°C° 1.1 mm 1 m/s 728 mmHg 89%
    21:00 +27°C° 1.1 mm 1 m/s 729 mmHg 90%
    22:00 +26°C° 1.1 mm 1 m/s 729 mmHg 91%
    23:00 +26°C° 0.4 mm 1 m/s 729 mmHg 91%

    23 Novembre, Vendredi

    Heure Température Précipitation Vent Pression Humidité
    00:00 +26°C° 0.4 mm 1 m/s 728 mmHg 91%
    01:00 +26°C° 0.4 mm 1 m/s 728 mmHg 91%
    02:00 +26°C° 0.1 mm 1 m/s 728 mmHg 91%
    03:00 +25°C° 0.1 mm 1 m/s 728 mmHg 91%
    04:00 +25°C° 0.1 mm 1 m/s 728 mmHg 91%
    05:00 +26°C° 0 mm 1 m/s 728 mmHg 89%
    06:00 +26°C° 0 mm 1 m/s 729 mmHg 86%
    07:00 +27°C° 0 mm 1 m/s 729 mmHg 84%
    08:00 +29°C° 0.1 mm 2 m/s 729 mmHg 76%
    09:00 +30°C° 0.1 mm 2 m/s 729 mmHg 69%
    10:00 +33°C° 0.1 mm 3 m/s 729 mmHg 61%
    11:00 +33°C° 0.2 mm 3 m/s 729 mmHg 62%
    12:00 +32°C° 0.2 mm 2 m/s 728 mmHg 63%
    13:00 +32°C° 0.2 mm 2 m/s 727 mmHg 64%
    14:00 +32°C° 0.4 mm 2 m/s 726 mmHg 67%
    15:00 +31°C° 0.4 mm 2 m/s 726 mmHg 70%
    16:00 +31°C° 0.4 mm 2 m/s 726 mmHg 73%
    17:00 +30°C° 0.4 mm 2 m/s 726 mmHg 77%
    18:00 +29°C° 0.4 mm 2 m/s 727 mmHg 81%
    19:00 +27°C° 0.4 mm 1 m/s 727 mmHg 85%
    20:00 +27°C° 0.3 mm 1 m/s 728 mmHg 86%
    21:00 +27°C° 0.3 mm 1 m/s 728 mmHg 87%
    22:00 +26°C° 0.3 mm 1 m/s 728 mmHg 88%
    23:00 +26°C° 0.2 mm 1 m/s 728 mmHg 88%
    Voir plus